Location: Caltech
(34.1382°N, 118.1253°W)
Time: 11:24:30
(UTC-08:00)

PANSAT - Visible Passes

Search period start: 13 February 2016 00:00
Search period end: 23 February 2016 00:00
Orbit: 480 x 487 km, 28.5° (Epoch: 12 February)

Date Brightness Start Highest point End Pass type
(mag) Time Alt. Az. Time Alt. Az. Time Alt. Az.
20 Feb 9.6 19:27:29 10° SW 19:29:15 18° S 19:29:15 18° S visible
21 Feb 9.1 18:58:55 10° SW 19:01:52 21° SSE 19:02:28 21° SSE visible
22 Feb 9.2 18:30:21 10° SW 18:33:19 22° SSE 18:35:39 13° ESE visible
22 Feb 10.5 20:09:24 10° WSW 20:09:52 13° WSW 20:09:52 13° WSW visible
